| time (UTC) | temp F | wind direction | speed knots | gust knots | rain 1hr in | rain 24hr in | rain mn in | humidity % | barometer mb |
| 20260902165546 | 92 | 270 | 7.8 | 12.2 | 0.00 | 0.00 | 0.00 | 62 | 1014.2 |
| 20260902165147 | 92 | 246 | 7.0 | 11.3 | 0.00 | 0.00 | 0.00 | 63 | 1014.2 |
| 20260902164558 | 91 | 223 | 7.8 | 13.9 | 0.00 | 0.00 | 0.00 | 64 | 1014.3 |
| 20260902164110 | 91 | 276 | 6.1 | 13.9 | 0.00 | 0.00 | 0.00 | 64 | 1014.2 |
| 20260902163611 | 91 | 225 | 6.1 | 12.2 | 0.00 | 0.00 | 0.00 | 63 | 1014.4 |
| 20260902163042 | 91 | 244 | 5.2 | 10.4 | 0.00 | 0.00 | 0.00 | 66 | 1014.4 |
| 20260902162554 | 90 | 263 | 6.1 | 11.3 | 0.00 | 0.00 | 0.00 | 66 | 1014.5 |
| 20260902161615 | 90 | 269 | 8.7 | 13.0 | 0.00 | 0.00 | 0.00 | 66 | 1014.5 |
| 20260902161121 | 89 | 275 | 7.8 | 10.4 | 0.00 | 0.00 | 0.00 | 68 | 1014.5 |
| 20260902160632 | 89 | 297 | 7.8 | 13.0 | 0.00 | 0.00 | 0.00 | 68 | 1014.6 |
| 20260902160043 | 89 | 286 | 7.8 | 13.0 | 0.00 | 0.00 | 0.00 | 68 | 1014.6 |
| 20260902155544 | 89 | 254 | 7.8 | 13.0 | 0.00 | 0.00 | 0.00 | 68 | 1014.5 |
| 20260902154612 | 88 | 260 | 7.8 | 12.2 | 0.00 | 0.00 | 0.00 | 70 | 1014.5 |
| 20260902154114 | 87 | 265 | 7.0 | 11.3 | 0.00 | 0.00 | 0.00 | 73 | 1014.6 |
| 20260902153626 | 87 | 240 | 7.0 | 11.3 | 0.00 | 0.00 | 0.00 | 74 | 1014.5 |
| 20260902153046 | 86 | 256 | 6.1 | 12.2 | 0.00 | 0.00 | 0.00 | 75 | 1014.6 |
| 20260902152558 | 86 | 260 | 7.0 | 12.2 | 0.00 | 0.00 | 0.00 | 76 | 1014.5 |
| 20260902151619 | 85 | 248 | 6.1 | 10.4 | 0.00 | 0.00 | 0.00 | 77 | 1014.6 |
| 20260902151130 | 85 | 275 | 6.1 | 10.4 | 0.00 | 0.00 | 0.00 | 79 | 1014.6 |
| 20260902150634 | 85 | 250 | 5.2 | 10.4 | 0.00 | 0.00 | 0.00 | 81 | 1014.6 |
| 20260902145652 | 84 | 261 | 4.3 | 7.8 | 0.00 | 0.00 | 0.00 | 83 | 1014.5 |
| 20260902145136 | 83 | 290 | 2.6 | 7.8 | 0.00 | 0.00 | 0.00 | 84 | 1014.5 |
| 20260902144604 | 83 | 263 | 2.6 | 7.0 | 0.00 | 0.00 | 0.00 | 85 | 1014.5 |
| 20260902144116 | 82 | 297 | 3.5 | 7.0 | 0.00 | 0.00 | 0.00 | 85 | 1014.5 |
| 20260902143622 | 82 | 280 | 4.3 | 7.0 | 0.00 | 0.00 | 0.00 | 85 | 1014.6 |
| 20260902143049 | 82 | 279 | 3.5 | 7.0 | 0.00 | 0.00 | 0.00 | 86 | 1014.5 |
| 20260902142558 | 82 | 302 | 3.5 | 10.4 | 0.00 | 0.00 | 0.00 | 86 | 1014.6 |
| 20260902141600 | 82 | 286 | 4.3 | 7.8 | 0.00 | 0.00 | 0.00 | 86 | 1014.6 |
| 20260902141112 | 81 | 264 | 4.3 | 8.7 | 0.00 | 0.00 | 0.00 | 86 | 1014.7 |
| 20260902140136 | 81 | 281 | 5.2 | 8.7 | 0.00 | 0.00 | 0.00 | 86 | 1014.7 |
| 20260902135627 | 81 | 250 | 5.2 | 7.8 | 0.00 | 0.00 | 0.00 | 86 | 1014.7 |
| 20260902135109 | 81 | 281 | 5.2 | 10.4 | 0.00 | 0.00 | 0.00 | 87 | 1014.6 |
| 20260902134537 | 81 | 266 | 4.3 | 10.4 | 0.00 | 0.00 | 0.00 | 87 | 1014.6 |
| 20260902134150 | 80 | 242 | 4.3 | 7.8 | 0.00 | 0.00 | 0.00 | 87 | 1014.6 |
| 20260902133632 | 80 | 270 | 3.5 | 7.0 | 0.00 | 0.00 | 0.00 | 87 | 1014.6 |
| 20260902133103 | 80 | 271 | 3.5 | 7.0 | 0.00 | 0.00 | 0.00 | 87 | 1014.5 |
| 20260902132554 | 80 | 265 | 2.6 | 7.0 | 0.00 | 0.00 | 0.00 | 87 | 1014.5 |
| 20260902132135 | 80 | 271 | 2.6 | 7.8 | 0.00 | 0.00 | 0.00 | 87 | 1014.4 |
| 20260902131605 | 80 | 270 | 4.3 | 7.8 | 0.00 | 0.00 | 0.00 | 87 | 1014.3 |
| 20260902131118 | 79 | 250 | 3.5 | 7.0 | 0.00 | 0.00 | 0.00 | 87 | 1014.3 |
| 20260902130623 | 79 | 273 | 2.6 | 6.1 | 0.00 | 0.00 | 0.00 | 87 | 1014.2 |
| 20260902130050 | 79 | 264 | 3.5 | 6.1 | 0.00 | 0.00 | 0.00 | 87 | 1014.0 |
| 20260902125555 | 79 | 270 | 1.7 | 4.3 | 0.00 | 0.00 | 0.00 | 87 | 1014.0 |
| 20260902124603 | 79 | 268 | 3.5 | 5.2 | 0.00 | 0.00 | 0.00 | 87 | 1013.8 |
| 20260902124108 | 79 | 280 | 1.7 | 3.5 | 0.00 | 0.00 | 0.00 | 87 | 1013.7 |
| 20260902123119 | 79 | 271 | 0.0 | 0.0 | 0.00 | 0.00 | 0.00 | 87 | 1013.5 |
| 20260902122623 | 79 | 271 | 0.0 | 0.9 | 0.00 | 0.00 | 0.00 | 87 | 1013.5 |
| 20260902122134 | 79 | 274 | 0.0 | 0.0 | 0.00 | 0.00 | 0.00 | 87 | 1013.4 |
| 20260902121555 | 79 | 269 | 0.0 | 0.0 | 0.00 | 0.00 | 0.00 | 87 | 1013.3 |
| 20260902121107 | 79 | 271 | 0.0 | 0.0 | 0.00 | 0.00 | 0.00 | 87 | 1013.3 |
| 20260902120607 | 79 | 271 | 0.0 | 0.0 | 0.00 | 0.00 | 0.00 | 87 | 1013.4 |
| 20260902120038 | 79 | 271 | 0.0 | 0.0 | 0.00 | 0.00 | 0.00 | 87 | 1013.4 |
| 20260902115629 | 79 | 271 | 0.0 | 0.0 | 0.00 | 0.00 | 0.00 | 86 | 1013.4 |
| 20260902115133 | 79 | 271 | 0.0 | 0.0 | 0.00 | 0.00 | 0.00 | 86 | 1013.4 |
| 20260902114559 | 79 | 271 | 0.0 | 0.0 | 0.00 | 0.00 | 0.00 | 86 | 1013.3 |
| 20260902114054 | 79 | 271 | 0.0 | 0.0 | 0.00 | 0.00 | 0.00 | 86 | 1013.3 |
| 20260902113115 | 79 | 271 | 0.0 | 0.0 | 0.00 | 0.00 | 0.00 | 86 | 1013.3 |
| 20260902112628 | 79 | 273 | 0.0 | 0.0 | 0.00 | 0.00 | 0.00 | 86 | 1013.2 |
| 20260902112106 | 79 | 274 | 0.0 | 0.0 | 0.00 | 0.00 | 0.00 | 86 | 1013.3 |
| 20260902111538 | 79 | 277 | 0.0 | 0.0 | 0.00 | 0.00 | 0.00 | 85 | 1013.4 |
| 20260902111131 | 79 | 278 | 0.0 | 0.0 | 0.00 | 0.00 | 0.00 | 85 | 1013.4 |
| 20260902110634 | 79 | 278 | 0.0 | 0.0 | 0.00 | 0.00 | 0.00 | 85 | 1013.3 |
| 20260902110040 | 80 | 278 | 0.0 | 0.0 | 0.00 | 0.00 | 0.00 | 85 | 1013.4 |
| 20260902105544 | 80 | 278 | 0.0 | 0.0 | 0.00 | 0.00 | 0.00 | 84 | 1013.4 |
| 20260902105157 | 80 | 278 | 0.0 | 0.0 | 0.00 | 0.00 | 0.00 | 84 | 1013.4 |
| 20260902104604 | 80 | 278 | 0.0 | 0.0 | 0.00 | 0.00 | 0.00 | 84 | 1013.4 |
| 20260902104108 | 80 | 278 | 0.0 | 0.0 | 0.00 | 0.00 | 0.00 | 84 | 1013.4 |
| 20260902103624 | 80 | 278 | 0.0 | 0.0 | 0.00 | 0.00 | 0.00 | 84 | 1013.4 |
| 20260902102546 | 80 | 278 | 0.0 | 0.0 | 0.00 | 0.00 | 0.00 | 84 | 1013.3 |
| 20260902102059 | 80 | 278 | 0.0 | 2.6 | 0.00 | 0.00 | 0.00 | 84 | 1013.3 |
| 20260902101543 | 80 | 279 | 0.0 | 2.6 | 0.00 | 0.00 | 0.00 | 84 | 1013.4 |
| 20260902101055 | 80 | 279 | 0.0 | 0.0 | 0.00 | 0.00 | 0.00 | 84 | 1013.4 |
| 20260902100117 | 80 | 277 | 0.0 | 2.6 | 0.00 | 0.00 | 0.00 | 83 | 1013.3 |
| 20260902095629 | 80 | 279 | 1.7 | 3.5 | 0.00 | 0.00 | 0.00 | 83 | 1013.4 |
| 20260902095113 | 80 | 279 | 2.6 | 4.3 | 0.00 | 0.00 | 0.00 | 83 | 1013.2 |
| 20260902094544 | 81 | 281 | 2.6 | 4.3 | 0.00 | 0.00 | 0.00 | 83 | 1013.1 |
| 20260902094055 | 81 | 271 | 1.7 | 5.2 | 0.00 | 0.00 | 0.00 | 83 | 1013.2 |
| 20260902093600 | 81 | 269 | 1.7 | 3.5 | 0.00 | 0.00 | 0.00 | 83 | 1013.1 |
| 20260902093151 | 81 | 263 | 1.7 | 3.5 | 0.00 | 0.00 | 0.00 | 83 | 1013.1 |
| 20260902092643 | 81 | 261 | 0.9 | 5.2 | 0.00 | 0.00 | 0.00 | 82 | 1013.1 |
| 20260902091639 | 81 | 259 | 1.7 | 3.5 | 0.00 | 0.00 | 0.00 | 82 | 1013.0 |
| 20260902091123 | 81 | 254 | 0.9 | 3.5 | 0.00 | 0.00 | 0.00 | 82 | 1013.1 |
| 20260902090635 | 81 | 246 | 0.9 | 3.5 | 0.00 | 0.00 | 0.00 | 82 | 1013.0 |
| 20260902085545 | 81 | 242 | 0.9 | 2.6 | 0.00 | 0.00 | 0.00 | 81 | 1013.1 |
| 20260902084612 | 81 | 240 | 1.7 | 3.5 | 0.00 | 0.00 | 0.00 | 81 | 1013.0 |
| 20260902084124 | 81 | 238 | 1.7 | 4.3 | 0.00 | 0.00 | 0.00 | 81 | 1012.9 |
| 20260902083102 | 81 | 232 | 1.7 | 4.3 | 0.00 | 0.00 | 0.00 | 81 | 1012.9 |
| 20260902082611 | 81 | 240 | 2.6 | 4.3 | 0.00 | 0.00 | 0.00 | 81 | 1012.9 |
| 20260902082109 | 81 | 235 | 1.7 | 4.3 | 0.00 | 0.00 | 0.00 | 81 | 1013.0 |
| 20260902081540 | 81 | 236 | 1.7 | 3.5 | 0.00 | 0.00 | 0.00 | 81 | 1013.1 |
| 20260902081044 | 81 | 236 | 1.7 | 3.5 | 0.00 | 0.00 | 0.00 | 81 | 1013.0 |
| 20260902080636 | 81 | 236 | 0.9 | 3.5 | 0.00 | 0.00 | 0.00 | 81 | 1013.0 |
| 20260902075547 | 81 | 231 | 1.7 | 3.5 | 0.00 | 0.00 | 0.00 | 80 | 1013.2 |
| 20260902074614 | 81 | 230 | 2.6 | 3.5 | 0.00 | 0.00 | 0.00 | 79 | 1013.2 |
| 20260902074104 | 81 | 229 | 2.6 | 4.3 | 0.00 | 0.00 | 0.00 | 78 | 1013.2 |
| 20260902073103 | 81 | 226 | 1.7 | 3.5 | 0.00 | 0.00 | 0.00 | 77 | 1013.4 |
| 20260902072608 | 81 | 225 | 0.0 | 0.0 | 0.00 | 0.00 | 0.00 | 77 | 1013.4 |
| 20260902071630 | 81 | 207 | 0.0 | 0.0 | 0.00 | 0.00 | 0.00 | 78 | 1013.5 |
| 20260902071135 | 81 | 204 | 0.0 | 2.6 | 0.00 | 0.00 | 0.00 | 78 | 1013.6 |
| 20260902070626 | 81 | 202 | 0.9 | 2.6 | 0.00 | 0.00 | 0.00 | 78 | 1013.5 |
| 20260902070052 | 81 | 200 | 0.9 | 2.6 | 0.00 | 0.00 | 0.00 | 78 | 1013.6 |
| 20260902065540 | 81 | 197 | 0.0 | 2.6 | 0.00 | 0.00 | 0.00 | 79 | 1013.6 |
| 20260902065050 | 81 | 196 | 0.9 | 2.6 | 0.00 | 0.00 | 0.00 | 79 | 1013.7 |
| 20260902064542 | 80 | 145 | 0.0 | 0.9 | 0.00 | 0.00 | 0.00 | 79 | 1013.6 |
| 20260902064052 | 80 | 144 | 0.0 | 0.0 | 0.00 | 0.00 | 0.00 | 79 | 1013.6 |
| 20260902063603 | 80 | 143 | 0.0 | 1.7 | 0.00 | 0.00 | 0.00 | 79 | 1013.6 |
| 20260902063057 | 80 | 142 | 0.0 | 1.7 | 0.00 | 0.00 | 0.00 | 79 | 1013.6 |
| 20260902062547 | 81 | 142 | 0.9 | 0.9 | 0.00 | 0.00 | 0.00 | 79 | 1013.5 |
| 20260902062058 | 81 | 142 | 0.0 | 0.0 | 0.00 | 0.00 | 0.00 | 78 | 1013.5 |
| 20260902061552 | 80 | 142 | 0.0 | 0.0 | 0.00 | 0.00 | 0.00 | 79 | 1013.6 |
| 20260902061123 | 80 | 142 | 0.0 | 0.0 | 0.00 | 0.00 | 0.00 | 79 | 1013.7 |
| 20260902060538 | 80 | 142 | 0.0 | 0.0 | 0.00 | 0.00 | 0.00 | 79 | 1013.7 |
| 20260902055613 | 80 | 142 | 0.0 | 0.0 | 0.00 | 0.00 | 0.00 | 79 | 1013.6 |
| 20260902055102 | 80 | 142 | 0.0 | 0.0 | 0.00 | 0.00 | 0.00 | 79 | 1013.7 |
| 20260902054603 | 80 | 142 | 0.0 | 0.0 | 0.00 | 0.00 | 0.00 | 79 | 1013.7 |
| 20260902054046 | 80 | 142 | 0.0 | 0.0 | 0.00 | 0.00 | 0.00 | 79 | 1013.7 |
| 20260902053555 | 80 | 142 | 0.0 | 0.0 | 0.00 | 0.00 | 0.00 | 79 | 1013.6 |
| 20260902053047 | 80 | 142 | 0.0 | 0.0 | 0.00 | 0.00 | 0.00 | 79 | 1013.7 |
| 20260902052604 | 80 | 142 | 0.0 | 0.0 | 0.00 | 0.00 | 0.00 | 79 | 1013.7 |
| 20260902052047 | 80 | 142 | 0.0 | 0.0 | 0.00 | 0.00 | 0.00 | 79 | 1013.6 |
| 20260902051607 | 81 | 141 | 0.0 | 0.0 | 0.00 | 0.00 | 0.00 | 79 | 1013.6 |
| 20260902051056 | 81 | 141 | 0.0 | 1.7 | 0.00 | 0.00 | 0.00 | 79 | 1013.5 |
| 20260902050546 | 81 | 141 | 0.9 | 1.7 | 0.00 | 0.00 | 0.00 | 79 | 1013.5 |
| 20260902050040 | 81 | 141 | 0.0 | 1.7 | 0.00 | 0.00 | 0.00 | 79 | 1013.6 |
| 20260902045650 | 81 | 141 | 0.0 | 0.0 | 0.00 | 0.00 | 0.00 | 78 | 1013.7 |
| 20260902045114 | 81 | 141 | 0.0 | 0.9 | 0.00 | 0.00 | 0.00 | 78 | 1013.6 |
| 20260902044539 | 81 | 141 | 0.0 | 0.9 | 0.00 | 0.00 | 0.00 | 78 | 1013.7 |
| 20260902044050 | 81 | 141 | 0.0 | 0.9 | 0.00 | 0.00 | 0.00 | 78 | 1013.7 |
| 20260902043116 | 81 | 141 | 0.0 | 2.6 | 0.00 | 0.00 | 0.00 | 78 | 1013.7 |
| 20260902042627 | 81 | 141 | 0.9 | 2.6 | 0.00 | 0.00 | 0.00 | 77 | 1013.7 |
| 20260902042131 | 81 | 141 | 0.9 | 2.6 | 0.00 | 0.00 | 0.00 | 77 | 1013.7 |
| 20260902041558 | 81 | 141 | 0.9 | 2.6 | 0.00 | 0.00 | 0.00 | 77 | 1013.7 |
| 20260902041111 | 82 | 140 | 0.0 | 2.6 | 0.00 | 0.00 | 0.00 | 76 | 1013.8 |
| 20260902040134 | 82 | 140 | 0.9 | 1.7 | 0.00 | 0.00 | 0.00 | 76 | 1013.7 |
| 20260902035624 | 82 | 140 | 0.0 | 1.7 | 0.00 | 0.00 | 0.00 | 75 | 1013.7 |
| 20260902035129 | 82 | 140 | 0.0 | 1.7 | 0.00 | 0.00 | 0.00 | 75 | 1013.8 |
| 20260902034600 | 82 | 141 | 0.0 | 0.0 | 0.00 | 0.00 | 0.00 | 75 | 1013.7 |
| 20260902034105 | 82 | 141 | 0.0 | 2.6 | 0.00 | 0.00 | 0.00 | 75 | 1013.6 |
| 20260902033611 | 83 | 142 | 0.9 | 2.6 | 0.00 | 0.00 | 0.00 | 74 | 1013.6 |
| 20260902033043 | 83 | 142 | 0.9 | 2.6 | 0.00 | 0.00 | 0.00 | 74 | 1013.5 |
| 20260902032545 | 83 | 142 | 0.9 | 2.6 | 0.00 | 0.00 | 0.00 | 74 | 1013.4 |
| 20260902031608 | 83 | 141 | 1.7 | 3.5 | 0.00 | 0.00 | 0.00 | 74 | 1013.4 |
| 20260902031119 | 83 | 140 | 1.7 | 3.5 | 0.00 | 0.00 | 0.00 | 74 | 1013.3 |
| 20260902030631 | 83 | 139 | 1.7 | 3.5 | 0.00 | 0.00 | 0.00 | 74 | 1013.2 |
| 20260902030058 | 83 | 136 | 1.7 | 4.3 | 0.00 | 0.00 | 0.00 | 73 | 1013.3 |
| 20260902025610 | 84 | 136 | 1.7 | 4.3 | 0.00 | 0.00 | 0.00 | 73 | 1013.2 |
| 20260902024631 | 84 | 146 | 1.7 | 6.1 | 0.00 | 0.00 | 0.00 | 72 | 1013.1 |
| 20260902024143 | 84 | 144 | 1.7 | 4.3 | 0.00 | 0.00 | 0.00 | 72 | 1013.1 |
| 20260902023102 | 84 | 134 | 0.9 | 2.6 | 0.00 | 0.00 | 0.00 | 71 | 1013.1 |
| 20260902022606 | 84 | 137 | 0.9 | 2.6 | 0.00 | 0.00 | 0.00 | 71 | 1013.0 |
| 20260902021635 | 85 | 136 | 1.7 | 4.3 | 0.00 | 0.00 | 0.00 | 70 | 1012.9 |
| 20260902021118 | 85 | 134 | 1.7 | 4.3 | 0.00 | 0.00 | 0.00 | 70 | 1012.6 |
| 20260902020630 | 85 | 129 | 1.7 | 3.5 | 0.00 | 0.00 | 0.00 | 70 | 1012.7 |
| 20260902020054 | 85 | 129 | 0.9 | 3.5 | 0.00 | 0.00 | 0.00 | 69 | 1012.5 |
| 20260902015605 | 85 | 128 | 1.7 | 5.2 | 0.00 | 0.00 | 0.00 | 69 | 1012.5 |
| 20260902014601 | 86 | 124 | 1.7 | 4.3 | 0.00 | 0.00 | 0.00 | 68 | 1012.4 |
| 20260902014112 | 86 | 127 | 0.9 | 6.1 | 0.00 | 0.00 | 0.00 | 68 | 1012.3 |
| 20260902013612 | 86 | 130 | 2.6 | 6.1 | 0.00 | 0.00 | 0.00 | 68 | 1012.3 |
| 20260902013046 | 86 | 113 | 1.7 | 7.0 | 0.00 | 0.00 | 0.00 | 67 | 1012.4 |
| 20260902012556 | 87 | 71 | 1.7 | 7.8 | 0.00 | 0.00 | 0.00 | 67 | 1012.3 |
| 20260902011618 | 87 | 124 | 2.6 | 7.0 | 0.00 | 0.00 | 0.00 | 66 | 1012.3 |
| 20260902011051 | 87 | 125 | 3.5 | 7.8 | 0.00 | 0.00 | 0.00 | 66 | 1012.3 |
| 20260902010112 | 88 | 71 | 2.6 | 9.6 | 0.00 | 0.00 | 0.00 | 64 | 1012.0 |
| 20260902005617 | 89 | 117 | 1.7 | 7.8 | 0.00 | 0.00 | 0.00 | 64 | 1012.0 |
| 20260902004622 | 90 | 131 | 1.7 | 7.0 | 0.00 | 0.00 | 0.00 | 62 | 1012.0 |
| 20260902004106 | 90 | 80 | 2.6 | 7.8 | 0.00 | 0.00 | 0.00 | 61 | 1011.9 |
| 20260902003129 | 91 | 115 | 3.5 | 11.3 | 0.00 | 0.00 | 0.00 | 59 | 1011.9 |
| 20260902002540 | 93 | 105 | 4.3 | 10.4 | 0.00 | 0.00 | 0.00 | 57 | 1011.7 |
| 20260902001606 | 94 | 134 | 1.7 | 5.2 | 0.00 | 0.00 | 0.00 | 50 | 1011.5 |
| 20260902001115 | 94 | 117 | 0.9 | 9.6 | 0.00 | 0.00 | 0.00 | 50 | 1011.3 |
| 20260902000116 | 95 | 120 | 2.6 | 7.0 | 0.00 | 0.00 | 0.00 | 49 | 1011.5 |
| 20260901235626 | 95 | 109 | 2.6 | 7.0 | 0.00 | 0.00 | 0.00 | 49 | 1011.4 |
| 20260901234643 | 95 | 121 | 4.3 | 9.6 | 0.00 | 0.00 | 0.00 | 48 | 1011.4 |
| 20260901234112 | 95 | 84 | 3.5 | 9.6 | 0.00 | 0.00 | 0.00 | 48 | 1011.4 |
| 20260901233614 | 96 | 94 | 3.5 | 8.7 | 0.00 | 0.00 | 0.00 | 49 | 1011.4 |
| 20260901233044 | 96 | 130 | 3.5 | 7.8 | 0.00 | 0.00 | 0.00 | 49 | 1011.6 |
| 20260901232551 | 96 | 123 | 2.6 | 7.8 | 0.00 | 0.00 | 0.00 | 49 | 1011.6 |
| 20260901232039 | 96 | 86 | 5.2 | 7.8 | 0.00 | 0.00 | 0.00 | 48 | 1011.7 |
| 20260901231626 | 96 | 144 | 4.3 | 8.7 | 0.00 | 0.00 | 0.00 | 48 | 1011.6 |
| 20260901231135 | 96 | 125 | 3.5 | 11.3 | 0.00 | 0.00 | 0.00 | 48 | 1011.6 |
| 20260901230625 | 95 | 82 | 5.2 | 10.4 | 0.00 | 0.00 | 0.00 | 48 | 1011.7 |
| 20260901225548 | 95 | 84 | 6.1 | 9.6 | 0.00 | 0.00 | 0.00 | 46 | 1011.6 |
| 20260901224610 | 95 | 118 | 4.3 | 7.0 | 0.00 | 0.00 | 0.00 | 48 | 1011.8 |
| 20260901224122 | 95 | 57 | 2.6 | 8.7 | 0.00 | 0.00 | 0.00 | 48 | 1011.7 |
| 20260901223123 | 95 | 119 | 0.9 | 5.2 | 0.00 | 0.00 | 0.00 | 48 | 1011.8 |
| 20260901222539 | 95 | 75 | 2.6 | 5.2 | 0.00 | 0.00 | 0.00 | 48 | 1011.8 |
| 20260901222039 | 95 | 125 | 2.6 | 9.6 | 0.00 | 0.00 | 0.00 | 49 | 1011.9 |
| 20260901221040 | 95 | 80 | 3.5 | 9.6 | 0.00 | 0.00 | 0.00 | 49 | 1012.0 |
| 20260901215613 | 95 | 97 | 6.1 | 10.4 | 0.00 | 0.00 | 0.00 | 49 | 1012.1 |
| 20260901214615 | 95 | 49 | 4.3 | 10.4 | 0.00 | 0.00 | 0.00 | 48 | 1012.0 |
| 20260901214106 | 95 | 75 | 1.7 | 8.7 | 0.00 | 0.00 | 0.00 | 48 | 1012.0 |
| 20260901213610 | 95 | 40 | 3.5 | 10.4 | 0.00 | 0.00 | 0.00 | 48 | 1012.1 |
| 20260901213041 | 95 | 36 | 6.1 | 10.4 | 0.00 | 0.00 | 0.00 | 49 | 1012.1 |
| 20260901212553 | 95 | 100 | 0.9 | 10.4 | 0.00 | 0.00 | 0.00 | 50 | 1012.1 |
| 20260901211616 | 95 | 91 | 2.6 | 7.8 | 0.00 | 0.00 | 0.00 | 51 | 1012.1 |
| 20260901211128 | 95 | 61 | 3.5 | 11.3 | 0.00 | 0.00 | 0.00 | 51 | 1012.1 |
| 20260901210633 | 95 | 108 | 5.2 | 11.3 | 0.00 | 0.00 | 0.00 | 51 | 1012.2 |
| 20260901210101 | 95 | 69 | 6.1 | 12.2 | 0.00 | 0.00 | 0.00 | 51 | 1012.2 |
| 20260901205615 | 95 | 80 | 3.5 | 11.3 | 0.00 | 0.00 | 0.00 | 52 | 1012.2 |
| 20260901205118 | 95 | 93 | 7.0 | 10.4 | 0.00 | 0.00 | 0.00 | 51 | 1012.3 |
| 20260901204548 | 95 | 65 | 7.0 | 10.4 | 0.00 | 0.00 | 0.00 | 50 | 1012.3 |
| 20260901204053 | 96 | 67 | 6.1 | 12.2 | 0.00 | 0.00 | 0.00 | 48 | 1012.4 |
| 20260901203123 | 98 | 38 | 9.6 | 13.9 | 0.00 | 0.00 | 0.00 | 48 | 1012.5 |
| 20260901202626 | 97 | 81 | 8.7 | 14.8 | 0.00 | 0.00 | 0.00 | 50 | 1012.6 |
| 20260901202137 | 96 | 86 | 7.0 | 14.8 | 0.00 | 0.00 | 0.00 | 51 | 1012.6 |
| 20260901201559 | 97 | 90 | 7.0 | 12.2 | 0.00 | 0.00 | 0.00 | 50 | 1012.7 |
| 20260901201126 | 96 | 355 | 2.6 | 12.2 | 0.00 | 0.00 | 0.00 | 51 | 1012.8 |
| 20260901200636 | 96 | 68 | 6.1 | 13.0 | 0.00 | 0.00 | 0.00 | 51 | 1012.9 |
| 20260901200100 | 95 | 80 | 5.2 | 11.3 | 0.00 | 0.00 | 0.00 | 53 | 1013.0 |
| 20260901195610 | 95 | 90 | 7.0 | 13.0 | 0.00 | 0.00 | 0.00 | 52 | 1013.0 |
| 20260901195158 | 96 | 84 | 5.2 | 11.3 | 0.00 | 0.00 | 0.00 | 52 | 1012.9 |
| 20260901194600 | 95 | 176 | 3.5 | 7.8 | 0.00 | 0.00 | 0.00 | 52 | 1013.0 |
| 20260901193637 | 96 | 314 | 1.7 | 7.8 | 0.00 | 0.00 | 0.00 | 53 | 1013.0 |
| 20260901193048 | 96 | 109 | 0.9 | 7.8 | 0.00 | 0.00 | 0.00 | 53 | 1013.0 |
| 20260901192552 | 95 | 69 | 3.5 | 7.0 | 0.00 | 0.00 | 0.00 | 54 | 1013.1 |
| 20260901191622 | 94 | 26 | 4.3 | 7.8 | 0.00 | 0.00 | 0.00 | 55 | 1013.3 |
| 20260901191127 | 94 | 35 | 2.6 | 8.7 | 0.00 | 0.00 | 0.00 | 56 | 1013.3 |
| 20260901190128 | 94 | 355 | 2.6 | 6.1 | 0.00 | 0.00 | 0.00 | 56 | 1013.4 |
| 20260901185543 | 95 | 55 | 2.6 | 7.0 | 0.00 | 0.00 | 0.00 | 56 | 1013.4 |
| 20260901185155 | 94 | 339 | 1.7 | 7.8 | 0.00 | 0.00 | 0.00 | 56 | 1013.5 |
| 20260901184551 | 94 | 74 | 1.7 | 7.8 | 0.00 | 0.00 | 0.00 | 57 | 1013.6 |
| 20260901184104 | 94 | 351 | 1.7 | 6.1 | 0.00 | 0.00 | 0.00 | 58 | 1013.6 |
| 20260901183106 | 93 | 101 | 2.6 | 8.7 | 0.00 | 0.00 | 0.00 | 59 | 1013.9 |
| 20260901182611 | 93 | 110 | 2.6 | 9.6 | 0.00 | 0.00 | 0.00 | 59 | 1014.1 |
| 20260901182122 | 93 | 74 | 3.5 | 11.3 | 0.00 | 0.00 | 0.00 | 60 | 1014.2 |
| 20260901181553 | 92 | 96 | 4.3 | 11.3 | 0.00 | 0.00 | 0.00 | 61 | 1014.3 |
| 20260901181058 | 93 | 95 | 2.6 | 8.7 | 0.00 | 0.00 | 0.00 | 61 | 1014.5 |
| 20260901180057 | 92 | 83 | 2.6 | 9.6 | 0.00 | 0.00 | 0.00 | 62 | 1014.7 |
| 20260901175608 | 92 | 59 | 5.2 | 9.6 | 0.00 | 0.00 | 0.00 | 61 | 1014.7 |
| 20260901174608 | 92 | 69 | 7.0 | 9.6 | 0.00 | 0.00 | 0.00 | 60 | 1014.9 |
| 20260901174119 | 92 | 77 | 2.6 | 6.1 | 0.00 | 0.00 | 0.00 | 62 | 1015.0 |
| 20260901173624 | 92 | 349 | 1.7 | 7.0 | 0.00 | 0.00 | 0.00 | 61 | 1015.0 |
| 20260901173051 | 91 | 90 | 0.9 | 6.1 | 0.00 | 0.00 | 0.00 | 62 | 1015.1 |
| 20260901172559 | 91 | 107 | 2.6 | 9.6 | 0.00 | 0.00 | 0.00 | 63 | 1015.1 |
| 20260901171628 | 91 | 72 | 0.9 | 8.7 | 0.00 | 0.00 | 0.00 | 63 | 1015.2 |
| 20260901171134 | 92 | 70 | 3.5 | 11.3 | 0.00 | 0.00 | 0.00 | 62 | 1015.3 |
| 20260901170624 | 92 | 67 | 5.2 | 11.3 | 0.00 | 0.00 | 0.00 | 64 | 1015.4 |
| 20260901170044 | 91 | 67 | 4.3 | 9.6 | 0.00 | 0.00 | 0.00 | 65 | 1015.3 |